This is the latest recevied weather packets stored in our database for station/object EA5BZ. If no packets are shown the sender has not sent any weather packets the latest 10 day(s).
| Time | Temp. | Humidity | Pressure | Rain* | Wind** | Luminosity | Snow |
|---|---|---|---|---|---|---|---|
| 1777091417 | 16.11° C | 66% | 1017.2 hPa | 0 mm | - | - | - |
| 1777089937 | 16.11° C | 76% | 1017.6 hPa | 0 mm | - | - | - |
| 1777089017 | 16.11° C | 78% | 1017.8 hPa | 0 mm | - | - | - |
| 1777088717 | 16.11° C | 78% | 1017.9 hPa | 0 mm | - | - | - |
| 1777088417 | 16.11° C | 78% | 1017.9 hPa | 0 mm | - | - | - |
| 1777081816 | 16.67° C | 81% | 1018 hPa | 0 mm | - | - | - |
| 1777080017 | 16.67° C | 82% | 1018.2 hPa | 0 mm | - | - | - |
| 1777079716 | 16.67° C | 82% | 1018.1 hPa | 0 mm | - | - | - |
| 1777078516 | 16.67° C | 82% | 1018 hPa | 0 mm | - | - | - |
| 1777074316 | 16.67° C | 82% | 1018.5 hPa | 0 mm | - | - | - |
| 1777074016 | 16.67° C | 82% | 1018.6 hPa | 0 mm | - | - | - |
| 1777073436 | 16.67° C | 82% | 1018.6 hPa | 0 mm | - | - | - |
| 1777072216 | 16.11° C | 83% | 1018.8 hPa | 0 mm | - | - | - |
| 1777071316 | 16.67° C | 83% | 1018.8 hPa | 0 mm | - | - | - |
| 1777070716 | 16.67° C | 83% | 1019 hPa | 0 mm | - | - | - |
| 1777066217 | 16.67° C | 82% | 1019.2 hPa | 0 mm | - | - | - |
| 1777064717 | 16.67° C | 83% | 1019.1 hPa | 0 mm | - | - | - |
| 1777063217 | 16.67° C | 82% | 1019.1 hPa | 0 mm | - | - | - |
| 1777061417 | 16.67° C | 84% | 1019 hPa | 0 mm | - | - | - |
| 1777060217 | 17.22° C | 83% | 1018.5 hPa | 0 mm | - | - | - |
| 1777059317 | 17.22° C | 82% | 1018.3 hPa | 0 mm | - | - | - |
| 1777057817 | 17.22° C | 82% | 1017.7 hPa | 0 mm | - | - | - |
| 1777056917 | 17.22° C | 82% | 1017.5 hPa | 0 mm | - | - | - |
| 1777056317 | 17.22° C | 82% | 1017.4 hPa | 0 mm | - | - | - |
| 1777054217 | 17.22° C | 82% | 1017.2 hPa | 0.25 mm | - | - | - |
* Rain latest hour (hover to see other rain measurements)
** Current wind speed in m/s (hover to see current wind gust speed)